When you browse on this site, cookies collect data to enhance your experience and personalize the content and advertising you see.
Visit our Privacy Policy to learn more. By continuing to use the site, you agree to this use of cookies and data.
  • En España
  • Lista de países
  • Para 7 días
  • Temperatura del agua
  • Mapa Satelital
  • El tiempo en el mapa
  • Informadores
  • user-avatar
    Iniciar sesión

    Tiempo cada hora Zadar

    Hoy, 16 Junio, Domingo

    Tiempo Temperatura Precipitaciones Viento Presión Humedad
    00:00 +25°C° 0 mm 3 mps 757 mmHg 55%
    01:00 +25°C° 0 mm 3 mps 757 mmHg 56%
    02:00 +23°C° 0 mm 4 mps 757 mmHg 58%
    03:00 +23°C° 0 mm 4 mps 757 mmHg 60%
    04:00 +23°C° 0 mm 4 mps 757 mmHg 61%
    05:00 +25°C° 0 mm 4 mps 757 mmHg 63%
    06:00 +26°C° 0 mm 5 mps 757 mmHg 65%
    07:00 +27°C° 0 mm 5 mps 757 mmHg 65%
    08:00 +28°C° 0 mm 5 mps 757 mmHg 64%
    09:00 +28°C° 0 mm 6 mps 757 mmHg 63%
    10:00 +29°C° 0 mm 6 mps 757 mmHg 63%
    11:00 +29°C° 0 mm 6 mps 757 mmHg 63%
    12:00 +29°C° 0 mm 6 mps 757 mmHg 64%
    13:00 +29°C° 0 mm 6 mps 758 mmHg 64%
    14:00 +29°C° 0 mm 6 mps 757 mmHg 63%
    15:00 +29°C° 0 mm 6 mps 757 mmHg 62%
    16:00 +29°C° 0 mm 6 mps 757 mmHg 61%
    17:00 +28°C° 0.1 mm 6 mps 757 mmHg 64%
    18:00 +27°C° 0.1 mm 5 mps 758 mmHg 67%
    19:00 +26°C° 0.1 mm 5 mps 758 mmHg 70%
    20:00 +25°C° 0 mm 4 mps 758 mmHg 71%
    21:00 +25°C° 0 mm 4 mps 758 mmHg 72%
    22:00 +24°C° 0 mm 3 mps 758 mmHg 73%
    23:00 +24°C° 0 mm 3 mps 758 mmHg 74%

    Mañana, 17 Junio, Lunes

    Tiempo Temperatura Precipitaciones Viento Presión Humedad
    00:00 +22°C° 0 mm 4 mps 759 mmHg 76%
    01:00 +22°C° 0 mm 4 mps 759 mmHg 78%
    02:00 +22°C° 0 mm 5 mps 758 mmHg 76%
    03:00 +22°C° 0 mm 6 mps 758 mmHg 74%
    04:00 +22°C° 0 mm 7 mps 758 mmHg 72%
    05:00 +23°C° 0 mm 7 mps 758 mmHg 70%
    06:00 +24°C° 0 mm 6 mps 759 mmHg 69%
    07:00 +24°C° 0 mm 6 mps 759 mmHg 67%
    08:00 +27°C° 0 mm 5 mps 759 mmHg 63%
    09:00 +28°C° 0 mm 5 mps 759 mmHg 59%
    10:00 +29°C° 0 mm 4 mps 759 mmHg 54%
    11:00 +30°C° 0 mm 4 mps 759 mmHg 52%
    12:00 +30°C° 0 mm 4 mps 759 mmHg 50%
    13:00 +32°C° 0 mm 4 mps 759 mmHg 48%
    14:00 +32°C° 0 mm 5 mps 759 mmHg 50%
    15:00 +32°C° 0 mm 5 mps 758 mmHg 51%
    16:00 +30°C° 0 mm 5 mps 758 mmHg 53%
    17:00 +29°C° 0 mm 5 mps 758 mmHg 57%
    18:00 +28°C° 0 mm 4 mps 758 mmHg 62%
    19:00 +27°C° 0 mm 4 mps 758 mmHg 66%
    20:00 +26°C° 0 mm 4 mps 758 mmHg 69%
    21:00 +25°C° 0 mm 4 mps 758 mmHg 71%
    22:00 +23°C° 0 mm 4 mps 759 mmHg 73%
    23:00 +24°C° 0 mm 3 mps 758 mmHg 75%

    Pasado mañana, 18 Junio, Martes

    Tiempo Temperatura Precipitaciones Viento Presión Humedad
    00:00 +22°C° 0 mm 3 mps 758 mmHg 76%
    01:00 +22°C° 0 mm 3 mps 758 mmHg 77%
    02:00 +22°C° 0 mm 3 mps 758 mmHg 78%
    03:00 +21°C° 0 mm 3 mps 758 mmHg 79%
    04:00 +21°C° 0 mm 2 mps 758 mmHg 79%
    05:00 +23°C° 0 mm 2 mps 759 mmHg 76%
    06:00 +24°C° 0 mm 2 mps 759 mmHg 74%
    07:00 +25°C° 0 mm 2 mps 759 mmHg 71%
    08:00 +27°C° 0 mm 2 mps 759 mmHg 66%
    09:00 +28°C° 0 mm 1 mps 759 mmHg 61%
    10:00 +29°C° 0 mm 1 mps 759 mmHg 57%
    11:00 +29°C° 0.1 mm 2 mps 759 mmHg 56%
    12:00 +30°C° 0.1 mm 3 mps 759 mmHg 56%
    13:00 +30°C° 0.1 mm 4 mps 758 mmHg 56%
    14:00 +30°C° 0 mm 4 mps 758 mmHg 57%
    15:00 +29°C° 0 mm 4 mps 758 mmHg 59%
    16:00 +29°C° 0 mm 4 mps 757 mmHg 60%
    17:00 +28°C° 0 mm 3 mps 757 mmHg 64%
    18:00 +27°C° 0 mm 3 mps 757 mmHg 68%
    19:00 +26°C° 0 mm 2 mps 757 mmHg 72%
    20:00 +25°C° 0 mm 2 mps 758 mmHg 73%
    21:00 +24°C° 0 mm 1 mps 758 mmHg 74%
    22:00 +24°C° 0 mm 1 mps 758 mmHg 75%
    23:00 +23°C° 0 mm 1 mps 758 mmHg 75%

    19 Junio, Miércoles

    Tiempo Temperatura Precipitaciones Viento Presión Humedad
    00:00 +23°C° 0 mm 1 mps 758 mmHg 76%
    01:00 +23°C° 0 mm 1 mps 758 mmHg 77%
    02:00 +22°C° 0 mm 1 mps 758 mmHg 78%
    03:00 +20°C° 0 mm 0 mps 757 mmHg 79%
    04:00 +20°C° 0 mm 0 mps 757 mmHg 80%
    05:00 +21°C° 0 mm 0 mps 757 mmHg 75%
    06:00 +22°C° 0 mm 0 mps 758 mmHg 70%
    07:00 +24°C° 0 mm 0 mps 758 mmHg 64%
    08:00 +27°C° 0 mm 1 mps 758 mmHg 62%
    09:00 +28°C° 0 mm 1 mps 758 mmHg 59%
    10:00 +29°C° 0 mm 2 mps 758 mmHg 56%
    11:00 +29°C° 0 mm 2 mps 757 mmHg 57%
    12:00 +29°C° 0 mm 2 mps 757 mmHg 58%
    13:00 +29°C° 0 mm 3 mps 757 mmHg 58%
    14:00 +29°C° 0 mm 3 mps 757 mmHg 60%
    15:00 +28°C° 0 mm 2 mps 756 mmHg 61%
    16:00 +28°C° 0 mm 2 mps 756 mmHg 62%
    17:00 +27°C° 0 mm 2 mps 756 mmHg 67%
    18:00 +26°C° 0 mm 1 mps 756 mmHg 71%
    19:00 +25°C° 0 mm 1 mps 756 mmHg 76%
    20:00 +24°C° 0 mm 1 mps 757 mmHg 78%
    21:00 +21°C° 0 mm 0 mps 757 mmHg 80%
    22:00 +20°C° 0 mm 0 mps 757 mmHg 82%
    23:00 +20°C° 0 mm 0 mps 757 mmHg 82%

    20 Junio, Jueves

    Tiempo Temperatura Precipitaciones Viento Presión Humedad
    00:00 +20°C° 0 mm 0 mps 757 mmHg 81%
    01:00 +20°C° 0 mm 0 mps 756 mmHg 81%
    02:00 +21°C° 0 mm 1 mps 757 mmHg 80%
    03:00 +21°C° 0 mm 1 mps 757 mmHg 78%
    04:00 +21°C° 0 mm 1 mps 757 mmHg 77%
    05:00 +23°C° 0 mm 2 mps 757 mmHg 73%
    06:00 +24°C° 0 mm 2 mps 757 mmHg 69%
    07:00 +26°C° 0 mm 2 mps 757 mmHg 64%
    08:00 +27°C° 0 mm 2 mps 757 mmHg 62%
    09:00 +28°C° 0 mm 2 mps 757 mmHg 59%
    10:00 +29°C° 0 mm 2 mps 757 mmHg 56%
    11:00 +29°C° 0 mm 2 mps 757 mmHg 55%
    12:00 +29°C° 0 mm 2 mps 757 mmHg 54%
    13:00 +29°C° 0 mm 2 mps 757 mmHg 53%
    14:00 +29°C° 0 mm 2 mps 757 mmHg 53%
    15:00 +29°C° 0 mm 3 mps 757 mmHg 54%
    16:00 +29°C° 0 mm 3 mps 756 mmHg 54%
    17:00 +28°C° 0 mm 2 mps 756 mmHg 59%
    18:00 +27°C° 0 mm 2 mps 757 mmHg 64%
    19:00 +26°C° 0 mm 1 mps 757 mmHg 69%
    20:00 +25°C° 0 mm 1 mps 757 mmHg 68%
    21:00 +24°C° 0 mm 1 mps 757 mmHg 68%
    22:00 +23°C° 0 mm 1 mps 757 mmHg 68%
    23:00 +23°C° 0 mm 1 mps 757 mmHg 70%

    21 Junio, Viernes

    Tiempo Temperatura Precipitaciones Viento Presión Humedad
    00:00 +22°C° 0 mm 1 mps 757 mmHg 72%
    01:00 +22°C° 0 mm 1 mps 757 mmHg 74%
    02:00 +22°C° 0 mm 1 mps 757 mmHg 73%
    03:00 +22°C° 0 mm 1 mps 757 mmHg 72%
    04:00 +22°C° 0 mm 1 mps 757 mmHg 71%
    05:00 +23°C° 0 mm 1 mps 757 mmHg 67%
    06:00 +25°C° 0 mm 2 mps 758 mmHg 62%
    07:00 +26°C° 0 mm 2 mps 758 mmHg 58%
    08:00 +27°C° 0 mm 2 mps 758 mmHg 55%
    09:00 +28°C° 0 mm 2 mps 758 mmHg 51%
    10:00 +29°C° 0 mm 2 mps 758 mmHg 48%
    11:00 +29°C° 0 mm 2 mps 758 mmHg 47%
    12:00 +30°C° 0 mm 2 mps 758 mmHg 46%
    13:00 +30°C° 0 mm 2 mps 758 mmHg 46%
    14:00 +30°C° 0 mm 1 mps 758 mmHg 45%
    15:00 +29°C° 0 mm 1 mps 758 mmHg 45%
    16:00 +29°C° 0 mm 1 mps 757 mmHg 45%
    17:00 +28°C° 0 mm 1 mps 758 mmHg 50%
    18:00 +27°C° 0 mm 1 mps 758 mmHg 56%
    19:00 +24°C° 0 mm 0 mps 758 mmHg 61%
    20:00 +25°C° 0 mm 1 mps 758 mmHg 59%
    21:00 +24°C° 0 mm 1 mps 758 mmHg 57%
    22:00 +24°C° 0 mm 2 mps 758 mmHg 54%
    23:00 +23°C° 0 mm 1 mps 758 mmHg 55%
    Mostrar más